Weather History for San Diego, CA

Change the Weather History Date:

Wednesday, February 26, 2014

  Actual Average Record
Temperature  
Mean Temperature 63 °F 58 °F  
Max Temperature 67 °F 65 °F 87 °F (1926)
Min Temperature 59 °F 52 °F 38 °F (1894)
Degree Days  
Heating Degree Days 2 7  
Month to date heating degree days 98 188  
Since 1 July heating degree days 453 843  
Cooling Degree Days 0 0  
Month to date cooling degree days 2 0  
Year to date cooling degree days 9 2  
Growing Degree Days 13 (Base 50)    
Moisture  
Dew Point 50 °F    
Average Humidity 61    
Maximum Humidity 69    
Minimum Humidity 52    
Precipitation  
Precipitation 0.00 in 0.08 in 1.14 in (1902)
Month to date precipitation 0.35 2.11  
Year to date precipitation 0.36 4.09  
Since 1 July precipitation 2.60 7.40  
Snow  
Snow 0.00 in - - ()
Month to date snowfall 0.0  
Year to date snowfall 0.0  
Since 1 July snowfall 0.0  
Snow Depth 0.00 in    
Sea Level Pressure  
Sea Level Pressure 30.07 in    
Wind  
Wind Speed 6 mph (SSW)    
Max Wind Speed 14 mph    
Max Gust Speed 17 mph    
Visibility 10 miles    
Events      
T = Trace of Precipitation, MM = Missing Value Source: NWS Daily Summary

Daily Weather History Graph

Daily Weather History Graph

Search for Another Location

Airport:

Trip Planner

Search our weather history database for the weather conditions in past years. The results will help you decide how hot, cold, wet, or windy it might be!

Date:

Astronomy

Feb. 26, 2014 Rise Set
Actual Time 6:19 AM PST 5:43 PM PST
Civil Twilight 5:55 AM PST 6:08 PM PST
Nautical Twilight 5:26 AM PST 6:37 PM PST
Astronomical Twilight 4:58 AM PST 7:05 PM PST
Moon 4:02 AM PST (2/26) 3:09 PM PST (2/26)
Length of Visible Light 12h 13m
Length of Day
11h 23m
Waning Crescent, 9% of the Moon is Illuminated
Feb 26
Waning Crescent
Mar 1
New
Mar 8
First Quarter
Mar 16
Full
Mar 23
Last Quarter

Hourly Weather History & Observations

Time (PST) Temp. Dew Point Humidity Pressure Visibility Wind Dir Wind Speed Gust Speed Precip Events Conditions
12:51 AM 60.1 °F 50.0 °F 69% 30.06 in 10.0 mi WSW 4.6 mph - N/A   Mostly Cloudy
1:00 AM 60.8 °F 50.0 °F 68% 30.07 in 10.0 mi SW 3.5 mph - N/A   Mostly Cloudy
1:51 AM 60.1 °F 50.0 °F 69% 30.06 in 10.0 mi Calm Calm - N/A   Overcast
2:51 AM 61.0 °F 48.9 °F 64% 30.06 in 10.0 mi WSW 3.5 mph - N/A   Overcast
3:51 AM 61.0 °F 48.9 °F 64% 30.06 in 10.0 mi WSW 3.5 mph - N/A   Overcast
4:51 AM 61.0 °F 48.0 °F 62% 30.07 in 10.0 mi WSW 3.5 mph - N/A   Overcast
4:58 AM 60.8 °F 48.2 °F 63% 30.08 in 10.0 mi SSW 3.5 mph - N/A   Overcast
5:51 AM 60.1 °F 50.0 °F 69% 30.09 in 10.0 mi East 3.5 mph - N/A   Overcast
6:51 AM 60.1 °F 50.0 °F 69% 30.11 in 10.0 mi East 4.6 mph - N/A   Overcast
7:51 AM 62.1 °F 50.0 °F 65% 30.10 in 10.0 mi ESE 8.1 mph - N/A   Mostly Cloudy
8:51 AM 63.0 °F 48.0 °F 58% 30.10 in 10.0 mi SSE 9.2 mph - N/A   Mostly Cloudy
9:51 AM 64.9 °F 46.9 °F 52% 30.09 in 10.0 mi SE 8.1 mph - N/A   Mostly Cloudy
10:51 AM 64.0 °F 48.9 °F 58% 30.07 in 10.0 mi SW 9.2 mph - N/A   Mostly Cloudy
11:51 AM 64.9 °F 50.0 °F 58% 30.09 in 10.0 mi WSW 10.4 mph - N/A   Overcast
12:51 PM 64.9 °F 50.0 °F 58% 30.08 in 10.0 mi WSW 8.1 mph - N/A   Mostly Cloudy
1:51 PM 66.0 °F 50.0 °F 56% 30.05 in 10.0 mi SSW 9.2 mph - N/A   Mostly Cloudy
2:51 PM 66.0 °F 51.1 °F 59% 30.05 in 10.0 mi SSW 9.2 mph - N/A   Mostly Cloudy
3:51 PM 64.9 °F 50.0 °F 58% 30.06 in 10.0 mi WSW 9.2 mph - N/A   Mostly Cloudy
4:51 PM 64.9 °F 52.0 °F 63% 30.05 in 10.0 mi West 4.6 mph - N/A   Scattered Clouds
5:51 PM 63.0 °F 51.1 °F 65% 30.05 in 10.0 mi SSW 4.6 mph - N/A   Scattered Clouds
6:51 PM 62.1 °F 53.1 °F 72% 30.07 in 10.0 mi SW 4.6 mph - N/A   Scattered Clouds
7:51 PM 63.0 °F 54.0 °F 72% 30.08 in 10.0 mi SSW 3.5 mph - N/A   Scattered Clouds
8:51 PM 62.1 °F 54.0 °F 75% 30.07 in 10.0 mi SE 4.6 mph - 0.00 in   Scattered Clouds
9:51 PM 61.0 °F 53.1 °F 75% 30.06 in 10.0 mi East 5.8 mph - N/A   Scattered Clouds
10:51 PM 61.0 °F 52.0 °F 72% 30.06 in 10.0 mi ESE 3.5 mph - N/A   Scattered Clouds
11:51 PM 62.1 °F 52.0 °F 70% 30.06 in 10.0 mi Calm Calm - N/A   Mostly Cloudy